#timestamp,LO_Frequency,Hit,StdDev 
1507359615.4,286047000.3,N
1507359635.2,286047002.3,N
1507359655.1,286047002.6,N
1507359656.0,286047002.6,N
1507359675.8,286047002.8,N
1507359695.6,286046999.8,N
1507359715.5,286047002.7,N
1507359735.3,286047000.4,N
1507359755.2,286046998.8,N
1507359775.9,286046998.8,N
1507359795.7,286046999.1,N
1507359815.6,286046998.5,N
1507359835.4,286047000.4,N
1507359855.2,286047000.4,N
1507359875.1,286047000.6,N
1507359876.0,286047000.6,N
1507359895.8,286047000.4,N
1507359915.7,286046999.7,N
1507359935.5,286047002.8,N
1507359955.3,286046999.8,N
1507359975.2,286046999.9,N
1507359995.0,286047002.4,N
1507359995.9,286047002.4,N
1507360015.7,286047001.0,N
1507360035.6,286047002.8,N
1507360055.4,286047001.5,N
1507360075.3,286047001.4,N
1507360095.1,286047001.8,N
1507360115.8,286047002.5,N
1507360135.7,286047000.1,N
1507360155.5,286046999.7,N
1507360175.4,286047002.8,N
1507360195.2,286047002.8,N
1507360215.0,286047000.3,N
1507360215.9,286047000.3,N
1507360235.8,286047002.4,N
1507360255.6,286047000.6,N
1507360275.4,286046999.0,N
1507360295.3,286046997.0,N
1507360315.1,286046998.8,N
1507360335.9,286046999.2,N
1507360355.7,286046999.1,N
1507360375.5,286046997.2,N
1507360395.4,286046999.6,N
1507360415.2,286047002.4,N
1507360435.0,286047000.9,N
1507360435.9,286047000.9,N
1507360455.8,286046999.9,N
1507360475.6,286047002.2,N
1507360495.5,286047001.7,N
1507360515.3,286047001.7,N
1507360535.1,286047002.0,N
1507360555.9,286047001.3,N
1507360575.7,286047002.5,N
1507360595.5,286046999.8,N
1507360615.4,286047002.3,N
1507360635.2,286047002.2,N
1507360655.1,286047002.3,N
1507360656.0,286047002.3,N
1507360675.8,286047002.3,N
1507360695.6,286046999.7,N
1507360715.5,286047000.1,N
1507360735.3,286047001.0,N
1507360755.2,286047002.3,N
1507360775.9,286047001.5,N
1507360795.7,286047002.3,N
1507360815.6,286047002.2,N
1507360835.4,286047002.7,N
1507360855.3,286046999.8,N
1507360875.1,286047004.3,Y
1507360895.8,286047002.2,P
1507360915.7,286047002.7,P
1507360935.5,286047002.5,P
1507360955.4,286047002.4,Y
1507360975.2,286046998.6,P
1507360995.0,286046998.3,N
1507360995.9,286046998.3,N
1507361015.8,286046998.6,N
1507361035.6,286046998.7,N
1507361055.5,286046998.8,N
1507361075.3,286047000.8,N
1507361095.1,286047001.1,N
1507361115.9,286046998.3,N
1507361135.7,286046998.7,N
1507361155.5,286047001.2,N
1507361175.4,286047001.2,N
1507361195.2,286047001.2,N
1507361215.0,286047000.5,N
1507361216.0,286047000.5,N
1507361235.8,286046999.3,N
1507361255.6,286046998.8,N
1507361275.5,286046998.8,N
1507361295.3,286046999.5,N
1507361315.1,286046996.9,N
1507361335.9,286046998.7,N
1507361355.7,286046998.4,N
1507361375.6,286046998.7,N
1507361395.4,286046999.0,N
1507361415.2,286046996.5,N
1507361435.1,286046996.7,N
1507361436.0,286046996.7,N
1507361455.8,286046997.2,N
1507361475.7,286046997.5,N
1507361495.5,286046995.6,N
1507361515.3,286046995.7,N
1507361535.2,286046996.0,N
1507361555.9,286046995.1,N
1507361575.7,286046995.1,N
1507361595.6,286046998.0,N
1507361615.4,286046995.5,N
1507361635.3,286046996.3,N
1507361655.1,286046995.7,N
1507361656.0,286046995.7,N
1507361675.8,286046995.0,N
1507361695.7,286046997.1,N
1507361715.5,286046998.7,N
1507361735.4,286046998.1,N
1507361755.2,286046998.8,N
1507361775.0,286047000.3,N
1507361775.9,286047000.3,N
1507361795.8,286047000.9,N
1507361815.6,286046998.2,N
1507361835.5,286047000.6,N
1507361855.3,286047002.3,N
1507361875.1,286047001.2,N
1507361895.9,286046999.4,N
1507361915.7,286046999.3,N
1507361935.5,286046998.0,N
1507361955.4,286046998.0,N
1507361975.2,286046998.0,N
1507361995.1,286046997.4,N
1507361996.0,286046997.4,N
1507362015.8,286046997.8,N
1507362035.6,286046997.6,N
1507362055.5,286046997.8,N
1507362075.3,286046995.0,N
1507362095.1,286046995.3,N
1507362115.9,286046995.3,N
1507362135.7,286046997.5,N
1507362155.6,286046999.2,N
1507362175.4,286046996.7,N
1507362195.2,286046996.5,N
1507362215.1,286046996.7,N
1507362216.0,286046996.7,N
1507362235.8,286046997.1,N
1507362255.6,286046997.5,N
1507362275.5,286046996.1,N
1507362295.3,286046996.0,N
1507362315.2,286046993.7,Y
1507362335.9,286046997.6,P
1507362355.7,286046996.4,P
1507362375.6,286046995.4,P
1507362395.4,286046993.6,Y
1507362415.3,286046998.6,P
1507362435.1,286046998.8,N
1507362436.0,286046998.8,N
1507362455.8,286046999.5,N
1507362475.7,286046999.6,N
1507362495.5,286046997.8,N
1507362515.4,286046997.6,N
1507362535.2,286046997.7,N
1507362555.0,286046994.9,Y
1507362555.9,286046994.9,P
1507362575.8,286046999.3,N
1507362595.6,286046997.0,N
1507362615.5,286046999.5,N
1507362635.3,286046996.7,N
1507362655.1,286046997.3,N
1507362675.9,286046997.2,N
1507362695.7,286046996.6,N
1507362715.5,286046999.4,N
1507362735.4,286046998.3,N
1507362755.2,286047000.6,N
1507362775.1,286047000.5,N
1507362776.0,286047000.5,N
1507362795.8,286047000.6,N
1507362815.6,286046998.8,N
1507362835.5,286046996.7,N
1507362855.3,286046996.7,N
1507362875.1,286046996.7,N
1507362895.9,286046996.8,N
1507362915.7,286046997.0,N
1507362935.6,286046999.6,N
1507362955.4,286046997.2,N
1507362975.2,286046997.2,N
1507362995.1,286046997.2,N
1507362996.0,286046997.2,N
1507363015.8,286046996.8,N
1507363035.6,286046996.7,N
1507363055.5,286046999.2,N
1507363075.3,286046997.4,N
1507363095.2,286046997.7,N
1507363115.9,286046997.1,N
1507363135.7,286046997.8,N
1507363155.6,286046997.0,N
1507363175.4,286046997.1,N
1507363195.2,286046997.3,N
